[[{"header":{"parameterUnit":"m.s-1","parameterCategory":1,"la1":30.2991,"la2":30.254,"lo1":-89.0895,"lo2":-89.0444,"dy":0.0017,"dx":0.0017,"nx":28,"ny":28,"refTime":"2023-07-30T21:00:00:Z","depth":0,"parameterNumber":2,"parameterNumberName":"U-component_of_WINDS"},"data":[0,0,0,0,0,0,0,0,0,0,0,0,0,0,0,0,0,0,0,0,0,0,0,0,0,0,0,0,0,0,0,0,0,0,0,0,0,0,0,0,0,0,0,0,0,0,0,0,0,0,0,0,0,0,0,0,0,0,-0.1662,-0.1662,0,-0.1685,-0.1685,-0.1685,-0.1716,-0.1717,-0.1717,-0.1717,-0.1743,-0.1743,-0.1743,0,0,0,0,0,0,0,0,0,0,0,0,0,-0.1645,-0.1645,-0.1662,-0.1662,-0.1662,-0.1685,-0.1685,-0.1685,-0.1716,-0.1717,-0.1717,-0.1718,-0.1743,-0.1743,-0.1743,0,0,0,0,0,0,0,0,0,0,0,0,0,-0.1658,-0.1645,-0.1662,-0.168,-0.1682,-0.1685,-0.1685,-0.1685,-0.1716,-0.1717,-0.1717,-0.1718,-0.1743,-0.1743,-0.1743,-0.173,0,0,-0.1744,-0.1744,0,0,0,0,0,0,0,0,-0.1658,-0.1659,-0.1677,-0.1679,-0.1681,-0.1698,-0.1688,-0.17,-0.1716,-0.1703,-0.1718,-0.1718,-0.1727,-0.1729,-0.1732,-0.1731,-0.1732,-0.1744,-0.1744,-0.1744,-0.1745,0,0,0,0,0,0,0,-0.1657,-0.1658,-0.1671,-0.1677,-0.168,-0.1688,-0.169,-0.1691,-0.1711,-0.1704,-0.1706,-0.1709,-0.1729,-0.1731,-0.1733,-0.1733,-0.1744,-0.1744,-0.1745,-0.1745,-0.1721,-0.1721,0,0,0,0,0,0,-0.1653,-0.1657,-0.167,-0.1671,-0.1671,-0.1687,-0.169,-0.1692,-0.1711,-0.1714,-0.1708,-0.171,-0.173,-0.1732,-0.1734,-0.1719,-0.1744,-0.1745,-0.1745,-0.1722,-0.1721,-0.172,0,0,0,0,0,0,-0.1652,-0.1654,-0.1669,-0.1665,-0.1668,-0.1687,-0.1688,-0.1692,-0.1695,-0.1714,-0.1718,-0.1707,-0.1731,-0.1733,-0.173,-0.172,-0.1745,-0.1745,-0.1723,-0.1722,-0.1721,-0.1689,0,0,0,0,0,0,-0.1652,-0.1653,-0.1648,-0.1665,-0.1668,-0.1665,-0.1688,-0.1692,-0.1695,-0.1698,-0.1714,-0.1717,-0.1732,-0.173,-0.1731,-0.1721,-0.1745,-0.1724,-0.1722,-0.1721,-0.1691,-0.1687,-0.1683,0,0,0,0,0,-0.1651,-0.1639,-0.1648,-0.1649,-0.1662,-0.1664,-0.1666,-0.1683,-0.1694,-0.1689,-0.1701,-0.1717,-0.1721,-0.1729,-0.173,-0.1721,-0.1725,-0.1723,-0.1721,-0.1693,-0.1688,-0.1683,0,0,0,0,0,0,-0.1622,-0.1641,-0.1652,-0.1644,-0.1652,-0.167,-0.1664,-0.1677,-0.1683,-0.1685,-0.1706,-0.1709,-0.1704,-0.1712,-0.1721,-0.1708,-0.1725,-0.1723,-0.1703,-0.1698,-0.1695,-0.1693,-0.1746,0,0,0,0,0,-0.1614,-0.1614,-0.1632,-0.1624,-0.1627,-0.1645,-0.1647,-0.1659,-0.1668,-0.1672,-0.1684,-0.1693,-0.1696,-0.1698,-0.1702,-0.1692,-0.1696,-0.1686,-0.1682,-0.1679,-0.1677,-0.1672,-0.1668,-0.1714,-0.1714,-0.1714,0,0,-0.1599,-0.161,-0.1609,-0.1618,-0.1626,-0.1626,-0.1648,-0.1647,-0.1647,-0.1672,-0.167,-0.1678,-0.169,-0.1683,-0.1681,-0.169,-0.1665,-0.1677,-0.1674,-0.1674,-0.167,-0.1665,-0.1662,-0.1713,-0.1713,-0.1713,0,0,-0.1571,-0.158,-0.1574,-0.1581,-0.1592,-0.1603,-0.1602,-0.1617,-0.1623,-0.1621,-0.164,-0.164,-0.1646,-0.1652,-0.1657,-0.163,-0.1645,-0.1631,-0.1611,-0.1606,-0.1602,-0.1599,-0.1589,-0.1585,-0.163,-0.163,-0.1629,0,-0.1551,-0.1552,-0.1569,-0.1567,-0.157,-0.1592,-0.1586,-0.1592,-0.1604,-0.1606,-0.1615,-0.1622,-0.1631,-0.1626,-0.1619,-0.1622,-0.1621,-0.163,-0.1601,-0.1598,-0.1596,-0.1586,-0.1583,-0.1628,-0.1628,-0.1628,-0.1628,0,-0.1526,-0.1526,-0.152,-0.153,-0.1533,-0.1528,-0.1545,-0.1546,-0.1557,-0.1568,-0.1565,-0.1577,-0.1583,-0.1583,-0.1595,-0.1579,-0.1584,-0.1597,-0.1615,-0.1589,-0.1581,-0.1577,-0.1625,-0.1626,-0.1626,-0.1627,0,0,-0.1481,-0.15,-0.1498,-0.1502,-0.1515,-0.1516,-0.1512,-0.1518,-0.1518,-0.1525,-0.1523,-0.1526,-0.1538,-0.1542,-0.1555,-0.155,-0.1528,-0.1564,-0.1565,-0.1556,-0.1511,-0.1501,-0.1497,-0.1538,-0.1537,-0.1536,-0.151,0,-0.1456,-0.1451,-0.1466,-0.1457,-0.1457,-0.1477,-0.1474,-0.1482,-0.1491,-0.1493,-0.1504,-0.1505,-0.1521,-0.1524,-0.152,-0.1532,-0.1519,-0.1534,-0.1535,-0.1535,-0.1532,-0.1493,-0.1483,-0.1457,-0.1507,-0.1507,-0.1506,0,-0.1426,-0.143,-0.1421,-0.1434,-0.1435,-0.1432,-0.1438,-0.1439,-0.1448,-0.1455,-0.146,-0.1474,-0.1471,-0.1488,-0.1484,-0.1494,-0.1495,-0.1501,-0.15,-0.1501,-0.1519,-0.1492,-0.145,-0.1446,-0.1501,-0.1502,-0.1502,0,-0.1393,-0.1397,-0.1392,-0.1396,-0.1411,-0.1408,-0.1414,-0.1424,-0.1426,-0.1431,-0.1433,-0.1438,-0.1441,-0.1444,-0.1459,-0.147,-0.1454,-0.1472,-0.146,-0.146,-0.1456,-0.1456,-0.1413,-0.1457,-0.1457,-0.1457,-0.1457,0,-0.1363,-0.1357,-0.1378,-0.1375,-0.1368,-0.1385,-0.1378,-0.1386,-0.1395,-0.1393,-0.1411,-0.141,-0.143,-0.1431,-0.1443,-0.1438,-0.1439,-0.1445,-0.1448,-0.1443,-0.1442,-0.1444,-0.1447,-0.1456,-0.1456,-0.1457,-0.1457,0,-0.1326,-0.134,-0.1335,-0.135,-0.1353,-0.1347,-0.136,-0.1357,-0.1368,-0.1366,-0.1366,-0.1383,-0.1384,-0.14,-0.1405,-0.1413,-0.1403,-0.141,-0.14,-0.1402,-0.1389,-0.139,-0.1346,-0.1341,-0.1388,-0.1388,-0.1387,0,-0.1305,-0.1301,-0.1314,-0.1315,-0.132,-0.132,-0.1322,-0.1339,-0.134,-0.1349,-0.1346,-0.1349,-0.1352,-0.1354,-0.1366,-0.137,-0.1377,-0.1361,-0.1378,-0.1373,-0.1376,-0.1376,-0.1376,-0.1358,-0.1357,-0.1356,-0.1356,0,-0.1268,-0.1275,-0.1277,-0.1281,-0.1283,-0.1287,-0.1292,-0.1291,-0.131,-0.131,-0.1312,-0.1314,-0.1319,-0.1322,-0.1327,-0.1334,-0.1348,-0.1351,-0.1348,-0.1343,-0.1337,-0.134,-0.139,-0.1352,-0.1352,-0.1352,-0.1353,-0.1353,-0.1238,-0.1235,-0.1244,-0.1245,-0.1251,-0.1255,-0.1253,-0.1263,-0.1264,-0.1269,-0.1279,-0.1279,-0.1287,-0.1297,-0.1302,-0.1302,-0.1311,-0.1307,-0.1306,-0.1305,-0.1302,-0.1337,-0.1303,-0.1304,-0.1304,-0.1304,-0.1304,0,-0.1202,-0.1208,-0.1209,-0.1215,-0.1216,-0.1229,-0.1235,-0.1235,-0.1235,-0.1241,-0.1244,-0.1245,-0.1247,-0.126,-0.1263,-0.1261,-0.1267,-0.1261,-0.1262,-0.1263,-0.1294,-0.1296,-0.1256,-0.1256,-0.1256,-0.1256,-0.1256,-0.1256,-0.1182,-0.1177,-0.1185,-0.1182,-0.1189,-0.1188,-0.1191,-0.1195,-0.12,-0.12,-0.1202,-0.121,-0.1219,-0.1223,-0.1226,-0.1229,-0.123,-0.1221,-0.1227,-0.1256,-0.1261,-0.1265,-0.1267,-0.1221,-0.1221,-0.1195,-0.1195,-0.1195]},{"header":{"parameterUnit":"m.s-1","parameterCategory":1,"la1":30.2991,"la2":30.254,"lo1":-89.0895,"lo2":-89.0444,"dy":0.0017,"dx":0.0017,"nx":28,"ny":28,"refTime":"2023-07-30T21:00:00:Z","depth":0,"parameterNumber":3,"parameterNumberName":"V-component_of_WINDS"},"data":[0,0,0,0,0,0,0,0,0,0,0,0,0,0,0,0,0,0,0,0,0,0,0,0,0,0,0,0,0,0,0,0,0,0,0,0,0,0,0,0,0,0,0,0,0,0,0,0,0,0,0,0,0,0,0,0,0,0,-2.1124,-2.1125,0,-2.1131,-2.1132,-2.1132,-2.112,-2.1119,-2.1119,-2.1119,-2.1121,-2.1122,-2.1122,0,0,0,0,0,0,0,0,0,0,0,0,0,-2.1099,-2.1099,-2.1124,-2.1125,-2.1125,-2.1131,-2.1132,-2.1132,-2.112,-2.1119,-2.1119,-2.1118,-2.1121,-2.1121,-2.1122,0,0,0,0,0,0,0,0,0,0,0,0,0,-2.1108,-2.1099,-2.1124,-2.112,-2.1119,-2.1131,-2.1132,-2.1132,-2.112,-2.1119,-2.1119,-2.1118,-2.1121,-2.1121,-2.1122,-2.1138,0,0,-2.1124,-2.1124,0,0,0,0,0,0,0,0,-2.1108,-2.1109,-2.112,-2.112,-2.112,-2.1124,-2.1123,-2.1134,-2.112,-2.1119,-2.1119,-2.1118,-2.1122,-2.1123,-2.1125,-2.1138,-2.1138,-2.1124,-2.1124,-2.1125,-2.1125,0,0,0,0,0,0,0,-2.1107,-2.1109,-2.1127,-2.112,-2.112,-2.1117,-2.1117,-2.1125,-2.1124,-2.1119,-2.1119,-2.112,-2.1122,-2.1125,-2.1125,-2.1138,-2.1124,-2.1125,-2.1125,-2.1125,-2.1167,-2.1168,0,0,0,0,0,0,-2.1107,-2.1108,-2.1127,-2.1127,-2.1112,-2.1117,-2.1118,-2.1123,-2.1124,-2.1123,-2.112,-2.1119,-2.1124,-2.1124,-2.1125,-2.1146,-2.1125,-2.1125,-2.1126,-2.1166,-2.1167,-2.1168,0,0,0,0,0,0,-2.1107,-2.1109,-2.1127,-2.1118,-2.112,-2.1119,-2.1124,-2.1124,-2.1126,-2.1125,-2.1124,-2.1124,-2.1123,-2.1124,-2.1136,-2.1145,-2.1126,-2.1126,-2.1165,-2.1166,-2.1167,-2.1185,0,0,0,0,0,0,-2.1106,-2.1109,-2.1115,-2.1118,-2.112,-2.1138,-2.1125,-2.1124,-2.1128,-2.1127,-2.1127,-2.1127,-2.1123,-2.1135,-2.1136,-2.1146,-2.1127,-2.1164,-2.1166,-2.1167,-2.1184,-2.1187,-2.1189,0,0,0,0,0,-2.1105,-2.1118,-2.1116,-2.1118,-2.1128,-2.1138,-2.1139,-2.1136,-2.1129,-2.1135,-2.1135,-2.1127,-2.1144,-2.1136,-2.1138,-2.1148,-2.1164,-2.1165,-2.1167,-2.1182,-2.1186,-2.1189,0,0,0,0,0,0,-2.1114,-2.1118,-2.1115,-2.113,-2.1134,-2.1136,-2.1143,-2.1139,-2.1144,-2.1143,-2.1137,-2.1137,-2.115,-2.115,-2.1141,-2.1164,-2.1153,-2.1155,-2.1164,-2.1167,-2.117,-2.117,-2.1127,0,0,0,0,0,-2.1118,-2.1127,-2.113,-2.1142,-2.1145,-2.1144,-2.1148,-2.1146,-2.1149,-2.115,-2.115,-2.1153,-2.1159,-2.1163,-2.1169,-2.1184,-2.1185,-2.1192,-2.1195,-2.1197,-2.1199,-2.1209,-2.1213,-2.1173,-2.1173,-2.1173,0,0,-2.1125,-2.1129,-2.1134,-2.1144,-2.1147,-2.1156,-2.1145,-2.1154,-2.1161,-2.1151,-2.1163,-2.1163,-2.1166,-2.118,-2.1186,-2.118,-2.121,-2.1199,-2.1201,-2.1201,-2.1211,-2.1215,-2.1218,-2.1174,-2.1174,-2.1174,0,0,-2.1144,-2.1147,-2.1159,-2.1163,-2.1169,-2.1169,-2.1172,-2.1176,-2.1177,-2.1189,-2.1183,-2.119,-2.12,-2.1204,-2.1206,-2.1231,-2.1224,-2.1232,-2.1247,-2.1257,-2.126,-2.1263,-2.1273,-2.1276,-2.1234,-2.1234,-2.1234,0,-2.1151,-2.1166,-2.1165,-2.1176,-2.1181,-2.1176,-2.1188,-2.1192,-2.1198,-2.1202,-2.1195,-2.1211,-2.1212,-2.1228,-2.1235,-2.1237,-2.124,-2.1232,-2.126,-2.1263,-2.1265,-2.1275,-2.1278,-2.1235,-2.1235,-2.1235,-2.1235,0,-2.1177,-2.1187,-2.1196,-2.1206,-2.1212,-2.1223,-2.1224,-2.123,-2.1228,-2.1229,-2.1243,-2.1245,-2.1252,-2.1255,-2.1252,-2.1272,-2.1268,-2.1261,-2.1249,-2.127,-2.1279,-2.1282,-2.1237,-2.1236,-2.1236,-2.1236,0,0,-2.1198,-2.121,-2.1213,-2.1219,-2.1227,-2.1234,-2.1247,-2.1256,-2.1262,-2.1267,-2.1278,-2.1289,-2.1284,-2.1287,-2.1284,-2.1293,-2.1315,-2.1285,-2.1285,-2.1292,-2.1338,-2.1344,-2.1348,-2.1311,-2.1312,-2.1312,-2.1339,0,-2.1217,-2.124,-2.1241,-2.1261,-2.1272,-2.1269,-2.1279,-2.1285,-2.1287,-2.1296,-2.1297,-2.1306,-2.1298,-2.13,-2.1309,-2.131,-2.1324,-2.1308,-2.132,-2.1321,-2.132,-2.1353,-2.1358,-2.1382,-2.1342,-2.1342,-2.1343,0,-2.1242,-2.1252,-2.1274,-2.1284,-2.1289,-2.1298,-2.1309,-2.1317,-2.1324,-2.1325,-2.1332,-2.1329,-2.1341,-2.133,-2.1348,-2.1337,-2.1342,-2.1344,-2.1345,-2.1346,-2.1333,-2.1355,-2.139,-2.1394,-2.1348,-2.1348,-2.1347,0,-2.1257,-2.1276,-2.1292,-2.1297,-2.1308,-2.1316,-2.132,-2.1327,-2.1334,-2.1343,-2.1347,-2.1357,-2.1362,-2.1369,-2.1369,-2.136,-2.1387,-2.1375,-2.1389,-2.1389,-2.1394,-2.1393,-2.1431,-2.1397,-2.1397,-2.1396,-2.1396,0,-2.1279,-2.1293,-2.13,-2.131,-2.1326,-2.1328,-2.1343,-2.1347,-2.1355,-2.1365,-2.1362,-2.1372,-2.1371,-2.1382,-2.1381,-2.1397,-2.1399,-2.14,-2.14,-2.1401,-2.1401,-2.1404,-2.1402,-2.1397,-2.1397,-2.1397,-2.1397,0,-2.1297,-2.1303,-2.1321,-2.1332,-2.1335,-2.1346,-2.1355,-2.1365,-2.1368,-2.1382,-2.1385,-2.139,-2.1402,-2.1403,-2.1416,-2.1416,-2.1436,-2.1433,-2.1434,-2.1434,-2.1448,-2.1447,-2.1488,-2.1495,-2.1456,-2.1456,-2.1456,0,-2.1311,-2.1322,-2.1336,-2.1344,-2.135,-2.1363,-2.1371,-2.1374,-2.1382,-2.1394,-2.1402,-2.1415,-2.1425,-2.1445,-2.1448,-2.1459,-2.1457,-2.1472,-2.1459,-2.146,-2.1459,-2.1459,-2.146,-2.1474,-2.1474,-2.1474,-2.1475,0,-2.1335,-2.1338,-2.135,-2.1365,-2.1376,-2.1386,-2.1396,-2.1403,-2.1407,-2.1417,-2.1431,-2.1439,-2.1455,-2.1468,-2.1479,-2.1483,-2.148,-2.1479,-2.1483,-2.1484,-2.1484,-2.1486,-2.1442,-2.1478,-2.1478,-2.1477,-2.1477,-2.1477,-2.1352,-2.1363,-2.1375,-2.139,-2.1399,-2.141,-2.1421,-2.1427,-2.1439,-2.1454,-2.1455,-2.1471,-2.148,-2.1496,-2.1501,-2.1513,-2.1508,-2.1513,-2.1515,-2.1516,-2.1518,-2.1483,-2.1515,-2.1515,-2.1515,-2.1515,-2.1515,0,-2.1376,-2.1385,-2.1399,-2.1416,-2.1428,-2.1427,-2.1439,-2.1449,-2.1464,-2.1474,-2.1485,-2.1503,-2.1516,-2.1522,-2.1536,-2.1544,-2.1543,-2.1548,-2.1547,-2.1549,-2.1521,-2.1517,-2.1549,-2.1549,-2.1549,-2.1549,-2.1549,-2.1549,-2.1391,-2.141,-2.1416,-2.144,-2.1449,-2.1466,-2.1474,-2.1484,-2.1492,-2.1513,-2.1525,-2.153,-2.1539,-2.1554,-2.1566,-2.1568,-2.1573,-2.1579,-2.158,-2.1554,-2.155,-2.1547,-2.1543,-2.158,-2.158,-2.1606,-2.1606,-2.1607]}]]